This demonstration page uses our WeatherBlox Daily Observations layout. Learn more.

Left ArrowRight Arrow

40.92501, -98.34201

Hourly Observations for February 27, 2022

Temp ( °F °C ) Dew Point ( °F °C ) Humidity (%) Winds ( mph kmh ) Pressure ( in mb ) Visibility ( mi km ) Precip ( " mm )
12:53 am 00:53 Clear 19 -7.2 3 -16.1 49 49 SW 6 9 30.40 1030 10 16 0.00 0.00
1:53 am 01:53 Clear 20 -6.7 4 -15.6 50 50 W 6 9 30.40 1030 10 16 0.00 0.00
2:53 am 02:53 Clear 16 -8.9 3 -16.1 56 56 WSW 7 11 30.40 1029 10 16 0.00 0.00
3:53 am 03:53 Clear 18 -7.8 4 -15.6 54 54 WSW 8 13 30.39 1029 10 16 0.00 0.00
4:53 am 04:53 Clear 16 -8.9 4 -15.6 59 59 WSW 7 11 30.39 1029 10 16 0.00 0.00
5:53 am 05:53 Clear 17 -8.3 3 -16.1 54 54 W 7 11 30.40 1030 10 16 0.00 0.00
6:53 am 06:53 Clear 17 -8.3 4 -15.6 56 56 WSW 8 13 30.40 1030 10 16 0.00 0.00
7:53 am 07:53 Sunny 21 -6.1 7 -13.9 54 54 WSW 9 15 30.39 1029 10 16 0.00 0.00
8:53 am 08:53 Sunny 27 -2.8 9 -12.8 46 46 W 10 17 30.41 1030 10 16 0.00 0.00
9:53 am 09:53 Sunny 36 2.2 11 -11.7 35 35 WSW 10 17 30.38 1029 10 16 0.00 0.00
10:53 am 10:53 Sunny 46 7.8 12 -11.1 25 25 WSW 13 20 30.35 1028 10 16 0.00 0.00
11:53 am 11:53 Sunny 52 11.1 8 -13.3 17 17 W 13 20 30.32 1027 10 16 0.00 0.00
12:53 pm 12:53 Sunny 55 12.8 7 -13.9 14 14 WSW 14 22 30.29 1026 10 16 0.00 0.00
1:53 pm 13:53 Sunny 58 14.4 6 -14.4 12 12 WSW 16 26 30.25 1024 10 16 0.00 0.00
2:53 pm 14:53 Sunny 60 15.6 5 -15 11 11 W 14 22 30.23 1024 10 16 0.00 0.00
3:53 pm 15:53 Sunny 61 16.1 5 -15 10 10 WSW 13 20 30.21 1023 10 16 0.00 0.00
4:53 pm 16:53 Sunny 60 15.6 5 -15 11 11 W 15 24 30.19 1023 10 16 0.00 0.00
5:53 pm 17:53 Sunny 56 13.3 4 -15.6 12 12 WSW 9 15 30.19 1022 10 16 0.00 0.00
6:53 pm 18:53 Clear 47 8.3 4 -15.6 17 17 SSW 10 17 30.19 1022 10 16 0.00 0.00
7:53 pm 19:53 Clear 44 6.7 4 -15.6 19 19 SW 10 17 30.20 1023 10 16 0.00 0.00
8:53 pm 20:53 Clear 44 6.7 4 -15.6 19 19 WSW 12 19 30.19 1022 10 16 0.00 0.00
9:53 pm 21:53 Clear 41 5 3 -16.1 20 20 WSW 12 19 30.19 1022 10 16 0.00 0.00
10:53 pm 22:53 Clear 34 1.1 3 -16.1 27 27 W 10 17 30.20 1023 10 16 0.00 0.00
11:53 pm 23:53 Clear 30 -1.1 3 -16.1 31 31 W 10 17 30.19 1022 10 16 0.00 0.00

Powered by AerisWeather